Regional Weather Roundup
Issued by NWS Newport/Morehead, NC

Current Version | Previous Version | Text Only | Print | Product List | Glossary Off
Versions: 1 2 3 4 5 6 7 8 9 10 11 12 13 14 15 16 17 18 19 20 21 22 23 24 25 26 27 28 29 30 31 32 33 34 35 36 37 38 39 40 41 42 43 44 45 46 47 48 49 50
000 ASUS42 KMHX 240013 RWRMHX WEATHER ROUNDUP FOR EASTERN NORTH CAROLINA NATIONAL WEATHER SERVICE NEWPORT/MOREHEAD CITY NC 700 PM EST MON JAN 23 2017 NOTE: "FAIR" INDICATES FEW OR NO CLOUDS BELOW 12,000 FEET WITH NO SIGNIFICANT WEATHER AND/OR OBSTRUCTIONS TO VISIBILITY NCZ015>017-031-032-045>047-102-103-240100- NORTH COAST CITY SKY/WX TMP DP RH WIND PRES REMARKS EDENTON MOCLDY 57 50 77 CALM 29.25S ELIZABETH CITY MOCLDY 55 52 89 N12 29.25R KITTY HAWK NOT AVBL MANTEO CLOUDY 51 51 99 CALM 29.24S $$ NCZ045>047-081-094-103-104-240100- CENTRAL COAST CITY SKY/WX TMP DP RH WIND PRES REMARKS FRISCO LGT RAIN 55 53 93 CALM 29.24S FOG $$ NCZ095-097-098-100-101-240100- SOUTHERN COAST CITY SKY/WX TMP DP RH WIND PRES REMARKS BEAUFORT CLOUDY 55 52 89 W7 29.27R CEDAR ISLAND NOT AVBL JACKSONVILLE CLOUDY 53 53 100 W9 29.30R PINEY ISLAND LGT RAIN N/A N/A N/A SW5 29.26R WILMINGTON CLOUDY 54 52 93 NW10 29.32R $$ NCZ011>013-027>030-043-044-078>080-089-090>093-098-240100- COASTAL PLAIN CITY SKY/WX TMP DP RH WIND PRES REMARKS AHOSKIE LGT RAIN 51 49 92 N8 29.29R CLINTON CLOUDY 55 53 94 CALM 29.32R ELIZABETHTOWN CLOUDY 55 51 86 W5 29.34R GOLDSBORO MOCLDY 56 50 80 W6 29.27R GREENVILLE CLOUDY 59 46 63 NW6 29.31S HAVELOCK LGT RAIN 55 53 93 CALM 29.29R KENANSVILLE CLOUDY 52 50 93 CALM 29.31R KINSTON CLOUDY 54 52 94 CALM 29.30R NEW BERN RAIN 53 51 93 W5 29.30R FOG RICHLANDS LGT RAIN 52 51 97 W3 29.32R ROCKY MOUNT CLOUDY 53 50 89 NW14 29.31R WASHINGTON CLOUDY 57 48 73 SW3 N/A WHITEVILLE MOCLDY 54 50 87 W3 29.33R $$ AMZ130-135-150-152-154-156-158-170-250-252-270-ANZ085-086-088-633-658-670-240100- MARINE OBSERVATIONS STATION/POSITION TIME TEMP WIND PRES WAVE SWELL AIR SEA DIR/SP/G HT/PER HT/PER (UTC) (F) (DEG/KT/KT) (MB) (FT/S) (FT/S) CHESAPEAKE LIGHT NOT AVBL 64 E VA BEACH 2350 56 55 160/ 4/ 6 989.6 12/11 11/11 DUCK 2348 54 47 220/ 6/ 8 989.2 2 E DUCK 2330 47 N/A 8/12 5/12 OREGON INLET 2342 51 50 220/ 2/ 2 989.9 13E OREGON INLT NOT AVBL HATTERAS CG 2348 57 57 260/ 3/ 4 989.5 DIAMOND BUOY 2350 62 76 330/ 12/ 16 989.4 7/11 7/11 CAPE LOOKOUT 0000 54 260/ 7/ 8 990.7 BEAUFORT LAB 2348 54 53 250/ 4/ 6 990.1 30 SE NEW RVR IN 2308 59 68 280/ 12/ 17 992.0 30 SE NEW RVR IN 2343 68 N/A 6/11 3/11 27 SE WRIGHTSVLE 2308 58 67 260/ 16/ 23 989.6 5 SE WRIGHTSVLE 2308 55 54 290/ 12/ 16 991.4 225 S CAPE HAT 2250 69 71 210/ 21/ 33 992.1 13/11 8/11 41 SE CHARLESTON 2250 61 69 280/ 23/ 27 992.9 9/ 8 7/ 8 $$

USA.gov is the U.S. government's official web portal to all federal, state and local government web resources and services.